Wind_Speed
26 26 25 25 25 25 24 24 24 23 23 23 22 21 21 20 19 19 18 18 17 17 17 16 16 16 16 16 16 17 17 18 18 17 18 18 17 18 19 19 19 19 20 20 21 21 22 22 23 24 24 25 25 26 27 27 28 28 28 27 25 25 27 29 29 27 25 24 23 21 22 22 21 23 22 21 22 23 22 25 26 23 21 21 22 23 21 20
28 28 27 27 27 26 26 26 25 25 24 23 23 22 22 21 21 20 20 20 19 19 19 19 19 19 19 19 19 19 20 21 21 21 21 21 21 21 21 22 22 22 22 23 23 24 25 25 25 26 26 27 27 28 28 28 28 29 28 26 26 27 27 28 28 27 25 25 24 23 24 24 24 24 24 23 22 22 21 23 25 23 23 23 23 22 19 19
29 29 28 28 27 27 26 26 26 25 25 24 24 23 23 23 23 22 22 22 22 22 22 22 22 22 22 22 22 22 22 24 24 24 24 24 24 24 24 25 25 25 25 26 26 27 27 27 28 28 28 29 29 28 29 29 28 29 29 27 27 28 27 26 28 27 26 26 26 26 25 25 26 26 25 25 23 21 22 25 26 24 24 25 23 21 17 16
29 28 28 28 28 27 27 27 26 26 26 25 25 25 25 25 25 25 24 24 24 24 24 24 24 24 24 24 25 24 25 27 27 27 27 27 27 27 28 28 27 28 28 29 29 29 30 30 30 30 30 30 30 29 28 29 29 29 29 27 27 28 27 27 28 29 27 27 27 28 27 26 27 28 26 26 22 20 22 27 28 25 24 25 24 22 20 17
28 28 28 28 28 28 28 28 28 27 27 27 27 27 27 27 27 27 27 27 27 27 27 27 27 27 27 27 28 28 28 30 30 29 29 29 30 30 30 30 30 30 30 31 31 31 31 31 31 31 30 29 30 29 28 29 30 29 29 29 28 28 28 27 29 30 29 29 29 30 30 29 29 29 28 27 23 22 24 27 29 27 25 25 23 22 23 22
30 29 29 29 29 29 29 29 29 29 29 29 29 29 29 29 30 30 29 30 29 30 30 30 30 30 30 30 30 30 30 32 33 31 31 31 31 32 32 31 31 31 30 30 30 29 29 29 29 29 29 28 29 30 30 31 31 29 28 30 29 29 29 28 30 31 31 32 31 32 32 31 31 29 28 27 25 25 26 26 27 27 26 25 24 23 23 23
33 33 32 32 32 32 32 32 32 32 32 32 32 32 32 32 33 33 33 33 33 33 33 33 33 33 33 32 32 32 30 32 35 33 30 30 30 30 30 29 29 28 28 28 28 28 28 29 29 30 29 29 31 32 32 32 33 31 28 30 30 30 31 31 31 32 33 33 33 34 33 32 33 30 26 26 28 29 28 26 26 27 28 26 25 25 24 22
37 36 36 36 36 36 36 36 35 35 35 35 35 35 36 36 36 36 36 36 36 36 36 36 35 35 35 34 33 31 27 29 34 32 29 29 29 28 29 28 29 29 29 30 30 31 31 31 32 32 32 32 33 33 33 33 33 32 30 30 30 31 32 33 33 33 34 35 35 36 34 33 34 32 25 24 31 31 29 28 27 27 29 28 26 25 25 24
39 39 39 39 39 39 39 39 39 38 38 38 38 39 39 39 39 39 39 39 38 38 37 37 36 35 34 33 32 28 25 29 33 32 31 30 30 30 30 31 31 32 32 33 33 34 33 34 34 34 33 33 33 33 34 34 34 33 33 33 32 32 33 34 34 34 36 37 37 37 34 32 34 34 26 25 32 31 29 29 28 27 28 30 29 26 25 24
40 40 41 41 41 41 41 41 40 40 40 40 40 40 40 40 40 40 39 39 39 38 37 36 35 34 33 32 30 26 25 30 33 33 33 33 33 33 34 34 34 34 35 34 35 35 35 36 36 36 35 34 34 34 35 36 35 35 36 36 34 34 34 33 34 35 37 38 37 38 37 32 34 35 27 26 33 32 29 29 29 28 26 27 30 30 28 26
39 39 39 39 40 40 39 39 39 38 38 38 38 38 38 38 38 38 37 37 37 36 36 35 34 34 32 31 30 27 28 32 34 35 36 36 37 37 36 36 36 36 36 36 36 36 37 37 38 38 38 36 35 36 36 37 38 37 38 38 36 36 35 34 36 36 37 39 37 38 40 35 33 35 31 29 33 34 31 30 30 29 27 26 28 29 30 29
37 37 37 37 37 37 37 37 37 36 36 36 36 36 36 36 36 36 36 36 36 36 36 35 35 35 35 33 31 30 32 34 36 38 38 39 39 39 38 38 38 37 37 38 37 37 38 39 39 39 40 39 38 38 38 37 39 38 38 41 38 37 37 34 37 37 37 39 37 38 43 38 34 34 33 32 33 33 33 31 30 30 29 28 27 28 29 31
38 38 38 38 38 38 38 38 38 38 38 38 38 38 38 37 37 37 37 37 37 38 38 38 38 38 39 36 33 34 35 36 38 39 39 40 40 39 39 39 39 39 40 40 39 39 40 41 41 40 41 41 40 40 40 39 40 39 38 42 41 39 39 36 38 38 36 39 38 39 45 43 38 35 33 34 34 34 35 33 30 29 30 30 29 28 29 31
40 40 41 41 41 41 41 41 41 41 41 41 41 41 41 41 41 41 41 41 41 41 41 42 42 42 42 38 36 36 37 38 39 39 40 41 41 41 41 41 41 41 41 41 41 41 41 42 42 42 41 41 41 41 41 40 42 40 38 42 43 43 42 37 38 37 35 38 39 41 46 46 42 37 35 35 34 35 37 35 32 30 30 30 30 30 30 31
42 42 42 43 43 43 43 43 44 44 43 43 43 43 43 43 43 43 43 43 43 43 43 43 43 43 43 39 37 38 38 39 40 40 42 42 42 42 41 42 42 42 42 41 41 42 42 42 42 42 42 42 42 42 42 42 43 41 40 43 44 45 45 41 40 38 35 37 40 42 45 46 44 39 36 35 34 36 37 36 34 31 30 30 30 31 32 32
42 43 43 43 44 44 44 44 44 44 44 44 44 44 44 44 44 44 44 44 44 44 44 44 44 45 44 41 39 40 40 40 41 42 43 43 43 43 42 43 43 43 43 42 42 42 42 42 43 43 43 44 42 42 42 43 43 42 42 45 45 46 46 45 44 41 37 36 40 43 45 45 42 41 40 36 35 38 39 37 36 34 33 32 32 32 33 33
43 43 43 44 44 45 45 45 45 45 45 45 45 45 45 45 45 45 45 45 45 45 45 45 45 46 46 44 43 41 40 40 42 43 43 44 44 44 43 43 44 44 44 44 43 43 43 43 44 43 43 44 41 41 43 45 44 43 44 47 47 47 47 47 46 44 41 39 40 43 44 43 41 41 42 37 34 37 38 36 35 34 34 33 33 33 33 33
43 43 44 45 45 45 46 46 46 46 47 47 47 47 47 47 47 47 47 47 47 46 46 47 46 46 46 46 45 43 41 41 42 43 43 43 43 44 44 44 44 45 45 45 45 44 43 43 43 43 43 42 40 41 44 45 45 45 46 47 48 49 49 48 47 45 45 44 45 44 44 44 43 42 43 40 38 38 37 36 33 32 32 32 33 32 31 32
44 44 45 46 46 46 46 47 47 48 48 48 48 48 48 49 48 48 49 48 47 46 47 47 46 46 47 47 47 45 43 43 43 43 43 43 43 44 45 45 45 46 47 46 46 46 44 43 44 43 42 42 41 42 45 46 47 47 47 48 49 50 50 49 47 46 47 48 48 47 46 46 46 45 44 43 42 40 37 35 32 30 31 32 31 30 29 30
46 47 47 48 48 48 48 48 49 48 49 49 49 49 50 50 49 49 49 48 46 46 46 47 47 46 46 47 49 47 46 46 46 45 44 44 44 45 45 46 46 47 47 47 47 47 44 42 44 43 42 43 43 44 46 47 48 49 48 48 49 50 50 49 48 47 48 49 48 48 48 48 48 46 44 43 42 40 36 35 33 30 30 29 28 28 29 29
49 50 50 50 51 51 51 51 51 51 51 51 51 51 51 51 50 50 50 48 47 46 46 46 48 48 47 48 50 49 49 49 48 47 46 46 45 46 46 46 47 47 47 48 50 48 46 44 44 44 44 44 44 45 47 49 50 50 50 50 50 50 49 48 48 48 48 48 48 49 49 51 50 47 46 43 41 40 37 36 36 35 32 30 29 29 29 29
52 52 53 54 54 54 54 54 54 54 53 53 53 53 53 53 53 52 53 51 48 47 47 47 48 50 51 52 52 50 51 52 50 49 48 48 47 47 48 48 47 47 48 50 50 49 48 47 47 47 47 45 45 46 48 50 51 51 51 52 51 51 50 48 48 48 49 49 49 49 50 51 48 46 47 43 41 41 38 36 40 42 38 36 35 34 33 33
55 56 57 57 57 57 57 57 57 57 57 56 55 55 55 55 55 55 55 55 52 49 49 50 50 51 52 54 53 51 51 51 51 51 49 49 49 49 50 51 49 48 49 50 49 49 50 50 50 51 49 47 48 48 49 50 51 51 52 53 52 52 51 49 48 48 48 49 50 50 51 50 47 47 47 44 42 43 41 39 42 43 41 40 41 40 39 38
58 58 58 57 57 57 57 58 59 59 59 59 58 57 57 57 57 57 58 58 57 53 51 51 52 53 53 53 53 51 50 50 50 50 48 47 48 48 48 48 49 47 47 48 48 48 49 50 51 52 52 51 49 49 50 50 50 50 51 52 52 51 49 48 48 48 47 48 50 51 52 52 48 48 48 45 44 44 44 46 45 43 43 43 43 44 43 40
56 56 55 54 54 55 56 57 58 59 59 60 59 58 58 58 59 60 60 61 61 59 55 54 53 53 53 53 52 50 50 49 48 48 47 45 46 47 44 44 45 44 43 45 46 47 48 47 48 49 51 52 50 48 47 48 49 49 49 50 50 49 48 47 46 47 48 48 49 51 54 54 50 48 47 45 45 47 48 50 49 46 47 46 45 45 42 40
55 55 55 54 54 55 56 57 57 57 58 58 58 58 58 58 59 60 60 61 63 60 57 55 53 52 52 52 51 50 48 47 46 45 45 43 44 45 44 43 43 43 43 43 44 46 45 44 44 45 45 47 48 46 46 47 48 49 48 47 47 47 47 47 46 47 49 50 51 52 55 57 55 50 48 46 46 49 52 53 52 50 50 49 47 45 43 42
57 57 56 55 55 57 57 56 55 56 56 56 56 57 57 57 57 57 56 57 60 59 56 55 53 51 50 48 48 48 46 46 45 44 44 43 43 44 44 44 43 43 44 44 44 44 43 42 42 43 44 45 46 46 46 47 48 49 48 47 46 47 47 47 48 49 50 51 53 54 54 57 58 54 50 49 50 52 54 54 54 53 52 50 47 46 45 45
58 57 56 56 56 57 56 53 52 52 52 53 54 55 55 55 54 53 52 53 57 58 56 54 53 51 48 47 46 46 46 46 45 45 45 45 45 44 44 44 43 43 44 44 44 44 43 43 43 44 46 46 46 46 47 48 48 48 48 48 48 48 48 48 50 51 52 54 55 55 54 55 58 57 54 53 55 57 57 56 55 54 52 51 49 47 44 44
55 55 55 54 54 53 53 51 49 48 49 50 52 53 53 53 52 51 50 52 57 59 56 54 53 52 50 49 48 47 46 45 45 46 46 46 46 45 44 44 44 43 43 43 44 44 45 44 44 45 45 45 45 47 48 48 48 49 49 50 50 50 51 51 52 53 54 56 57 55 54 55 57 57 56 57 59 60 59 58 56 53 53 53 52 50 46 46
52 52 51 51 51 51 51 49 48 48 48 49 49 50 51 52 52 51 51 55 57 57 56 55 53 53 52 51 50 49 47 47 48 48 47 47 46 46 45 45 45 44 43 44 43 43 45 46 46 46 45 45 47 48 48 49 49 49 50 50 51 51 52 52 53 54 55 57 56 55 55 56 57 58 58 59 60 61 59 58 56 54 54 53 53 54 53 53
50 50 49 49 49 49 48 47 47 48 48 48 48 48 48 48 50 52 54 56 55 54 55 55 54 54 54 53 53 51 50 50 50 48 48 47 46 46 45 45 46 45 44 44 44 44 45 46 47 46 46 47 47 47 48 49 48 48 48 50 50 51 51 53 54 55 56 57 56 56 57 58 58 58 58 59 61 62 60 58 57 57 56 54 53 56 58 58
49 48 48 47 47 47 45 46 48 48 48 48 49 49 47 47 49 51 54 53 50 50 53 53 54 54 53 52 52 53 52 51 49 47 47 47 46 46 45 46 47 47 46 46 46 47 47 46 46 47 46 46 46 47 47 47 47 47 48 49 50 51 52 54 54 55 56 56 56 57 59 61 62 60 60 61 62 62 61 60 60 59 59 58 57 59 61 61
48 47 46 45 46 46 46 47 50 50 48 49 50 49 48 49 51 51 50 47 45 47 49 49 49 50 49 49 51 53 53 50 48 48 48 47 47 47 47 47 47 48 49 48 48 49 49 47 47 47 46 45 46 46 47 47 47 48 48 48 50 51 52 54 54 54 55 54 55 56 58 61 62 62 62 62 62 63 62 62 62 61 60 60 59 61 62 63
46 44 45 46 47 48 49 50 52 52 51 51 50 48 48 51 52 50 48 45 43 45 45 44 43 44 45 46 49 51 49 48 48 49 49 49 49 49 48 47 47 48 49 49 49 50 50 51 50 48 48 47 46 46 46 47 48 48 48 49 50 51 52 53 54 55 56 56 56 57 58 60 61 62 63 63 64 64 64 63 63 64 63 62 62 62 63 64
50 46 47 48 49 49 50 52 54 55 54 52 51 50 51 51 50 49 49 48 48 48 47 45 44 44 44 44 45 47 46 47 48 48 49 50 50 50 49 48 47 47 48 48 50 50 52 53 52 51 51 50 49 50 50 50 50 51 51 52 53 53 53 54 56 57 59 60 60 59 59 59 60 61 63 64 65 64 64 64 63 64 64 64 64 63 63 65
55 53 52 51 51 51 51 53 55 56 56 55 55 55 53 51 51 51 51 51 52 53 52 52 51 50 50 48 47 47 48 49 48 48 49 49 49 49 48 48 47 48 49 50 51 52 53 53 52 53 54 54 53 55 55 54 54 55 54 54 54 55 55 57 58 58 58 60 61 59 59 58 57 61 64 65 65 63 63 64 63 63 63 63 63 63 64 65
59 59 59 59 59 58 57 57 59 61 61 62 62 59 55 55 55 56 56 56 57 57 55 55 56 55 54 53 53 52 53 53 51 51 51 50 51 51 49 50 50 50 52 53 54 55 55 55 54 54 56 56 56 56 57 56 56 56 55 53 53 54 55 56 58 58 58 60 60 57 57 57 57 60 63 63 63 62 62 62 62 62 62 62 62 63 64 65
64 64 63 63 64 65 65 66 67 68 68 69 68 65 61 60 60 61 61 59 58 58 57 56 56 56 55 56 56 54 55 56 55 55 55 54 55 55 53 54 54 53 53 54 55 56 56 55 53 52 53 55 54 54 55 55 54 55 54 52 51 52 54 54 55 57 56 57 58 56 56 56 56 57 59 60 60 59 59 59 59 60 61 62 62 62 62 63
64 65 65 64 64 66 67 68 68 67 67 69 69 67 65 65 64 63 61 58 56 55 57 58 57 57 57 57 56 55 56 58 58 58 59 58 58 58 57 58 57 57 55 53 53 54 54 54 53 51 51 53 52 52 53 53 53 53 54 52 51 52 52 52 53 54 54 56 57 56 55 55 54 54 56 57 56 55 55 55 56 57 59 59 59 60 60 61
62 63 63 62 63 64 64 65 64 64 65 67 67 66 66 66 65 61 59 58 57 55 55 56 57 58 59 58 58 58 57 58 58 59 60 59 57 57 57 57 57 57 56 54 52 52 52 53 53 50 50 52 52 51 51 51 52 53 53 53 52 53 53 54 54 53 54 56 57 56 55 54 52 52 54 53 53 53 53 54 55 56 57 58 58 60 61 62
59 60 60 59 59 60 60 61 62 62 64 66 67 67 64 63 62 61 59 57 56 56 57 57 58 60 62 61 60 58 57 57 58 58 59 58 55 54 54 54 53 53 53 52 51 51 51 52 52 49 48 49 50 50 51 50 51 53 54 53 53 54 55 56 57 54 53 55 55 55 57 54 50 50 52 52 51 53 54 54 55 56 56 57 59 61 63 64
59 59 58 57 57 57 57 59 60 61 63 63 63 63 61 60 61 61 60 59 58 59 61 62 62 62 62 61 59 57 55 57 58 57 56 56 53 53 53 53 52 50 49 49 49 50 51 52 52 50 48 47 47 50 51 50 50 52 54 54 52 53 54 55 57 56 53 55 55 55 58 56 49 48 50 50 51 53 56 57 57 57 57 58 60 63 65 66
62 62 60 59 60 59 60 61 61 61 62 59 58 59 59 60 60 59 60 61 60 60 61 62 61 61 60 59 58 57 55 55 55 54 53 52 51 50 50 49 49 48 48 49 48 49 50 51 52 52 50 49 48 50 52 51 50 53 55 54 52 52 52 53 56 57 56 57 56 57 59 55 48 48 50 51 53 56 58 59 59 60 61 61 63 65 66 68
65 66 64 63 63 64 65 65 63 64 63 60 59 59 59 59 60 59 60 60 60 61 61 61 59 59 58 57 56 56 54 54 54 52 51 50 49 49 47 47 47 46 47 49 49 48 49 51 51 52 53 51 50 50 52 52 52 53 53 52 51 50 51 53 54 54 56 56 53 52 55 52 47 47 49 50 53 55 57 58 59 60 62 64 65 66 67 69
68 68 68 67 67 68 68 67 66 67 65 63 63 61 60 60 60 59 60 61 61 61 61 61 59 58 57 56 56 55 52 52 53 52 50 50 50 49 48 47 47 47 47 49 49 49 51 52 52 54 55 54 51 50 51 53 54 54 53 53 52 51 52 55 56 54 54 54 50 50 53 53 49 49 52 54 57 60 61 62 63 64 66 68 70 71 71 72
71 71 70 70 70 70 69 69 69 69 68 66 66 63 61 61 60 59 60 60 60 60 60 60 58 57 56 56 54 54 52 51 52 52 51 51 50 49 49 49 49 49 49 50 51 52 53 53 53 54 56 56 54 52 51 55 59 59 57 56 54 53 54 56 59 60 59 60 59 58 59 61 60 58 60 62 65 68 70 69 70 71 72 73 74 75 75 76
72 71 71 71 71 72 71 70 70 69 67 66 67 65 64 63 62 61 61 60 58 57 57 58 57 56 55 53 52 52 51 50 52 52 51 51 51 50 50 49 50 51 51 51 52 53 55 55 53 55 58 58 56 55 54 57 61 62 61 58 54 53 54 56 60 62 63 66 68 64 63 66 66 63 63 66 68 72 74 73 72 73 73 74 74 74 75 77
72 71 71 72 72 72 71 70 69 69 68 68 68 68 68 68 66 63 62 61 59 57 57 58 57 55 53 52 51 52 51 51 52 52 51 51 51 51 51 50 50 51 51 52 53 53 56 56 53 55 60 58 57 57 57 58 61 61 60 58 55 54 54 57 61 63 64 67 69 65 64 67 67 64 65 67 69 71 72 72 71 71 72 73 73 73 74 76
71 70 71 72 72 71 71 70 70 70 69 68 69 69 69 68 67 64 63 62 60 59 59 59 57 55 54 53 53 54 53 52 52 52 51 51 51 51 51 51 51 51 51 52 53 54 56 56 53 56 60 58 55 57 58 59 60 59 58 58 56 56 56 59 62 63 64 67 67 67 67 68 66 65 67 67 68 68 69 71 71 71 73 74 75 76 77 79
70 69 69 70 70 69 69 68 67 68 67 67 69 68 67 66 64 62 61 61 61 60 58 58 56 55 54 53 54 54 53 53 53 53 52 52 52 52 52 53 53 52 52 53 54 55 56 55 54 57 60 57 54 55 59 60 60 60 59 57 57 58 59 60 61 61 64 66 66 66 69 68 66 66 67 68 68 68 70 72 74 75 77 78 79 80 81 83
70 69 67 67 67 66 66 65 64 65 65 65 65 63 61 61 59 58 60 61 61 60 58 56 55 54 53 53 54 55 55 54 54 54 53 53 53 53 54 54 54 53 53 53 54 55 55 56 56 57 61 58 53 55 60 60 59 61 59 57 56 57 58 59 60 61 63 64 65 67 69 70 69 69 70 70 71 71 73 75 77 80 82 82 83 83 85 86
67 66 65 65 64 64 64 62 62 63 62 60 59 57 57 58 57 57 59 59 58 57 56 55 55 54 54 54 54 55 55 54 54 54 54 53 54 55 55 56 55 54 54 54 55 55 55 57 57 57 61 59 53 55 60 60 60 61 58 55 55 56 58 61 61 61 62 64 67 70 71 72 72 72 73 73 74 75 76 79 81 83 85 86 86 85 86 87
Wind_Direction
257 259 260 261 262 264 265 266 267 267 268 268 269 269 269 269 269 269 270 270 271 272 273 274 274 275 275 275 275 276 277 277 277 277 278 278 276 277 279 279 279 279 279 279 279 279 279 279 280 280 281 281 283 283 284 285 287 287 289 291 294 293 291 294 296 297 298 300 302 302 301 302 301 297 302 306 303 305 308 306 307 311 310 306 308 314 316 313
259 259 260 261 262 263 264 264 265 265 265 265 265 265 265 266 266 267 267 268 269 270 271 272 273 274 275 275 275 276 278 278 278 278 278 278 277 277 278 278 279 279 279 279 279 279 279 279 279 279 279 280 281 282 283 284 285 286 287 290 291 290 290 293 295 296 298 300 300 299 298 300 299 297 301 306 305 309 312 305 302 305 307 308 312 315 317 315
260 260 261 261 262 262 262 262 262 263 263 263 263 264 264 265 266 268 269 270 272 273 274 275 276 276 277 277 277 278 279 280 279 280 279 278 277 277 277 277 277 278 279 279 279 279 279 278 278 279 279 279 279 280 282 283 283 285 288 290 290 289 289 290 291 294 297 298 298 296 296 297 297 297 300 304 308 314 313 304 299 302 305 309 314 315 314 312
259 260 261 261 262 262 262 262 262 263 263 263 264 265 266 267 269 270 271 272 273 274 275 276 276 277 278 278 279 279 280 280 280 280 279 278 278 277 276 276 276 277 277 278 278 278 278 278 278 278 278 279 279 280 281 282 283 285 288 289 289 288 289 290 290 292 295 295 294 294 294 295 294 296 298 300 308 314 307 298 296 301 304 308 313 314 313 312
258 259 259 260 261 261 262 263 263 264 264 265 266 267 268 269 270 271 272 273 274 275 275 276 277 277 278 279 280 280 281 280 279 278 278 278 278 277 277 277 277 277 277 278 278 278 278 278 278 278 278 279 280 280 280 282 284 286 289 288 287 286 287 290 291 293 294 293 293 291 292 295 293 295 297 300 307 306 295 291 295 301 303 305 308 310 310 311
259 259 259 260 260 261 262 263 263 264 265 266 267 268 269 270 271 272 272 273 274 274 275 276 277 277 277 278 279 279 281 281 278 277 277 277 277 277 278 278 278 278 278 278 278 278 278 278 279 279 279 280 281 282 282 283 284 285 287 287 286 286 287 288 289 291 292 292 291 289 292 295 293 293 297 302 304 294 287 289 295 300 301 303 306 307 306 307
259 259 260 260 261 261 262 263 263 264 265 266 267 268 269 270 270 271 272 272 273 273 274 275 275 276 276 276 277 277 279 279 277 276 276 275 275 276 277 278 278 278 278 278 278 278 278 278 278 278 279 280 280 281 283 283 284 284 284 284 285 287 289 289 289 291 291 291 290 290 293 293 292 293 298 302 296 289 291 295 298 299 299 301 303 303 303 303
259 259 260 260 261 261 262 262 263 264 265 266 267 268 269 269 270 271 271 272 273 273 273 273 274 274 274 275 274 275 276 275 275 276 275 274 274 275 275 276 277 277 278 278 278 278 278 278 277 278 279 280 280 281 282 282 283 285 284 282 283 286 287 289 290 291 290 290 290 291 292 293 293 294 298 296 289 289 295 298 300 299 300 300 300 299 299 299
259 260 260 261 261 262 263 263 264 265 265 266 267 268 268 269 270 270 271 272 272 272 273 272 272 272 272 272 272 273 273 271 272 275 275 275 275 275 276 276 277 278 278 279 279 279 279 278 279 279 279 280 281 282 282 282 283 284 284 282 283 284 285 287 289 289 289 289 289 290 290 291 291 292 296 291 286 290 296 298 299 299 300 300 299 297 295 294
259 260 261 262 262 263 264 264 265 266 266 267 267 268 268 269 269 270 270 271 271 271 271 271 270 270 270 269 269 270 269 269 271 274 276 276 277 277 277 277 278 278 278 279 280 280 280 280 280 280 280 280 281 282 282 283 284 284 284 284 285 285 284 286 287 287 287 288 289 291 290 290 289 289 292 288 286 290 294 295 297 296 296 295 296 296 294 293
260 260 261 262 262 263 264 264 265 266 266 267 267 268 268 268 269 269 269 269 269 269 269 269 269 269 269 268 269 270 267 268 272 274 276 277 278 278 278 279 279 279 279 279 279 280 281 281 281 281 282 282 281 282 282 283 285 284 285 286 286 286 286 287 286 285 286 287 289 291 289 288 287 288 290 287 287 290 292 294 296 297 296 292 291 293 294 293
259 260 261 262 262 263 263 264 264 265 265 266 266 267 267 268 268 268 268 268 268 268 268 269 269 269 268 268 271 271 269 270 272 274 276 277 277 278 279 279 280 280 280 279 279 280 281 281 281 282 283 283 283 282 282 283 283 283 286 285 285 285 284 285 284 283 286 287 289 289 286 285 284 285 287 286 285 287 289 290 292 295 295 293 291 289 291 291
259 260 261 262 263 263 264 265 265 265 266 266 266 267 267 267 268 268 268 268 268 269 269 270 270 270 270 270 271 272 272 272 272 273 275 276 277 278 279 279 280 279 279 280 281 280 280 281 281 282 282 283 283 283 283 283 282 284 285 284 285 284 281 281 281 282 286 287 288 287 286 286 285 285 287 287 288 290 290 290 290 293 294 293 291 289 288 286
260 260 261 262 263 263 264 265 266 267 267 267 268 268 268 268 268 269 269 269 270 270 271 271 272 272 272 273 273 273 272 272 273 274 274 275 276 277 278 278 278 278 279 279 280 280 280 281 281 282 282 283 283 283 283 284 283 284 285 285 286 284 282 282 281 283 285 286 287 286 285 286 286 288 289 289 291 293 292 292 293 293 292 291 290 289 285 282
260 261 261 262 263 264 265 265 266 267 268 268 269 269 269 269 269 269 270 270 271 272 272 273 274 274 274 275 275 274 273 274 275 275 274 275 276 276 277 277 277 277 278 278 278 279 279 280 281 282 282 282 282 283 285 285 284 286 287 285 285 285 287 287 285 285 287 287 286 284 283 284 287 289 288 290 293 292 290 292 294 295 293 292 290 287 284 281
261 262 263 263 264 264 265 266 267 267 268 269 269 269 269 269 269 270 270 270 271 272 272 273 274 275 276 276 275 274 274 275 275 275 275 275 275 275 276 276 277 277 277 278 278 278 279 280 280 281 282 282 283 286 287 285 286 288 287 285 285 287 289 289 289 289 288 286 283 282 281 283 288 291 290 292 294 291 291 293 296 296 295 294 290 285 283 282
263 264 265 265 265 266 266 266 267 267 268 268 268 268 268 269 269 269 270 270 271 272 272 273 274 274 276 276 275 274 274 274 273 274 274 274 274 275 275 276 277 277 277 278 278 279 279 280 279 280 280 282 285 288 286 285 287 287 286 285 287 287 288 289 290 291 290 286 281 279 281 284 286 286 286 288 286 284 287 290 292 294 295 293 287 284 284 285
264 265 266 266 267 267 268 268 268 268 268 268 268 268 268 268 268 269 269 270 270 272 273 273 274 275 276 276 275 275 274 272 272 272 272 273 274 274 275 275 276 276 277 277 278 279 279 279 278 278 279 283 287 287 285 285 287 287 286 286 286 286 287 288 289 292 292 288 285 284 286 288 288 287 289 291 290 287 290 292 292 294 293 290 287 286 287 286
263 264 265 266 267 268 268 269 269 269 269 269 269 269 269 268 268 269 269 270 271 272 273 273 274 275 276 277 276 275 274 272 270 270 270 271 272 273 273 274 274 275 275 276 277 277 277 278 277 277 280 283 284 282 282 284 285 285 286 286 286 286 286 286 288 290 289 287 287 289 290 291 290 291 293 295 295 294 295 295 296 295 291 290 292 292 290 288
263 263 265 266 267 268 269 269 269 269 270 270 269 269 268 268 268 268 268 269 271 272 273 275 275 274 275 276 276 276 275 273 271 270 269 269 270 271 271 272 273 274 275 276 275 274 275 276 277 280 283 283 282 282 282 282 282 282 283 283 284 284 284 285 287 287 286 287 289 290 291 290 290 292 293 293 294 295 297 297 295 291 289 292 293 293 293 293
263 264 266 267 268 269 269 269 269 269 269 270 269 269 269 269 269 269 268 269 269 271 273 274 276 276 275 275 275 275 275 273 272 271 270 269 269 270 271 272 273 273 275 274 273 273 273 273 276 280 282 282 282 282 282 281 281 282 283 282 282 282 283 285 285 286 286 287 289 290 290 290 292 294 294 294 296 297 300 302 298 292 290 294 294 293 295 295
265 266 267 268 269 269 269 269 269 269 269 269 270 270 270 270 270 270 270 270 270 272 274 275 276 277 277 275 274 275 274 273 273 272 271 271 271 271 272 273 274 274 275 273 273 273 272 271 273 277 280 282 282 280 280 280 281 282 283 282 282 283 284 284 285 286 288 288 289 289 288 289 291 293 292 295 299 300 302 304 300 299 301 303 301 299 298 296
267 268 268 269 269 269 269 269 269 269 269 270 270 270 271 272 272 273 273 273 272 273 275 277 278 277 277 276 276 275 274 274 273 272 272 273 273 273 273 274 274 275 274 274 274 273 272 272 273 274 277 280 280 280 279 279 280 281 281 281 281 283 284 284 286 286 287 289 290 289 289 289 291 291 292 297 300 300 301 298 294 298 302 302 302 303 302 302
268 268 268 269 269 269 269 269 270 270 270 270 271 271 272 272 273 274 274 275 274 274 276 278 278 277 277 277 277 277 276 275 274 274 274 275 275 274 275 275 275 274 274 275 274 272 271 272 273 275 277 277 278 278 277 278 279 279 280 280 280 281 282 283 285 286 287 288 289 290 290 290 292 292 295 300 301 300 299 295 293 296 297 298 300 301 303 305
267 267 267 268 269 270 270 270 270 270 271 271 272 272 272 273 273 274 275 275 275 276 278 278 277 276 276 277 277 278 278 277 277 276 276 276 276 276 277 277 277 277 275 274 273 272 271 272 273 275 277 278 278 277 276 277 278 278 278 279 280 281 281 281 283 285 286 286 287 288 289 289 290 292 296 299 300 298 295 293 294 296 296 297 297 299 302 305
265 266 268 269 270 272 272 272 272 272 272 272 272 272 273 273 273 274 275 276 275 276 278 278 276 275 275 275 276 278 279 278 278 277 277 277 277 277 278 278 278 278 276 274 274 274 274 273 273 273 274 276 278 278 278 278 277 277 277 277 278 279 280 282 283 284 285 285 286 287 288 289 289 291 295 296 296 294 292 292 295 297 298 298 299 301 303 303
267 268 270 270 271 272 272 272 273 274 273 272 271 271 271 271 272 274 275 276 275 275 277 277 276 276 275 275 276 276 277 278 278 279 279 279 278 278 278 278 278 277 277 276 275 275 275 274 273 273 273 273 274 275 277 277 276 277 278 278 278 278 280 282 283 283 284 284 285 286 287 288 289 290 293 294 293 290 288 291 293 296 299 301 303 305 303 301
269 270 270 270 270 271 272 273 274 274 272 270 269 269 269 269 271 272 274 275 274 274 275 276 277 277 277 278 277 276 276 277 278 279 280 280 280 279 279 279 279 278 278 277 276 276 274 272 272 272 272 272 272 273 273 274 275 277 279 279 280 280 281 281 281 282 283 283 284 285 287 287 286 288 291 293 293 290 289 291 293 296 298 300 302 302 299 297
267 268 268 268 268 270 272 273 273 273 272 270 269 268 268 268 268 270 272 273 273 273 273 275 276 278 279 279 278 278 278 278 278 279 279 279 280 280 280 280 279 278 277 275 275 275 274 273 272 271 271 271 272 273 273 274 276 277 278 279 280 280 280 280 280 281 281 281 282 284 286 287 285 286 288 289 289 289 291 293 295 298 300 300 300 298 295 293
265 265 267 267 267 269 272 274 274 273 272 270 269 269 269 268 268 269 270 271 272 273 274 275 276 277 277 278 279 280 280 280 279 279 279 280 280 280 280 279 278 277 275 273 272 271 271 272 271 271 271 271 272 273 274 275 275 276 278 278 278 279 279 280 280 281 281 281 283 284 285 286 286 286 286 286 286 287 290 293 296 298 300 300 299 296 294 292
263 264 266 267 267 268 270 272 272 271 270 270 270 272 273 272 270 269 270 272 274 275 275 276 277 278 278 279 280 280 281 280 280 281 281 281 280 280 279 278 277 275 273 272 270 268 268 270 270 271 271 272 273 274 274 275 276 277 278 278 279 280 280 279 279 280 281 282 283 284 284 284 283 283 284 284 285 286 288 292 295 295 295 294 293 292 292 291
262 262 265 267 266 265 266 267 266 263 265 269 272 273 273 272 271 271 273 275 275 276 277 278 278 279 280 281 281 280 281 281 281 281 280 279 277 275 275 274 275 275 274 273 272 271 272 272 272 273 273 274 275 275 276 277 278 278 279 279 280 280 280 279 280 281 282 284 284 283 283 283 282 282 283 283 285 286 288 290 291 291 290 289 288 287 288 288
261 262 265 266 265 262 260 262 261 258 260 265 268 267 266 268 270 272 273 272 271 273 274 276 277 278 280 281 282 282 282 282 281 279 278 276 275 274 274 274 274 274 275 275 274 275 276 275 275 275 274 274 275 276 278 278 279 278 279 278 278 279 279 279 281 282 282 283 283 282 283 283 283 284 284 285 286 287 288 287 286 286 286 285 284 284 284 284
262 263 263 262 261 259 257 258 257 256 257 259 260 258 258 263 268 269 266 264 265 267 268 270 272 274 275 277 278 280 280 280 278 278 277 276 276 277 277 276 276 275 276 277 277 278 278 277 276 276 276 277 277 278 278 278 279 278 278 279 279 280 280 280 281 281 281 281 279 280 281 283 284 285 285 286 286 286 286 286 285 284 283 282 281 281 281 282
259 259 258 257 255 253 253 253 253 253 253 254 254 252 254 260 262 261 260 259 262 265 267 270 272 272 271 271 273 274 274 273 273 274 274 275 276 276 277 277 277 276 277 278 278 277 277 278 278 278 279 280 281 281 280 280 279 279 278 279 280 281 280 279 279 279 280 279 278 279 281 282 283 283 283 284 284 284 285 284 284 282 282 281 281 280 280 280
257 256 255 254 253 250 249 250 250 252 253 256 258 254 253 256 257 258 260 261 266 270 273 275 274 272 271 271 272 273 273 272 271 271 271 272 272 273 274 274 274 275 275 275 275 275 276 277 278 279 280 281 281 281 282 281 280 279 279 279 280 280 279 278 278 278 277 276 277 279 280 280 280 279 280 282 281 282 282 281 281 280 280 280 280 279 279 279
259 258 257 257 258 257 256 256 257 259 261 264 264 258 254 255 258 264 266 267 272 276 278 278 276 275 276 275 275 275 274 274 274 274 274 274 273 273 273 273 273 274 275 275 276 275 276 276 277 279 280 281 281 281 281 281 280 280 280 279 278 277 276 276 277 277 276 276 277 278 277 277 278 279 281 281 280 281 280 279 279 278 278 278 278 278 277 277
262 262 261 261 263 263 264 264 265 267 268 270 269 263 259 260 264 269 271 272 276 279 279 280 279 279 279 278 278 278 277 277 277 277 276 276 275 275 275 274 274 275 276 277 277 276 277 277 277 278 278 278 278 279 279 279 279 280 280 279 277 276 275 276 276 277 277 277 278 278 277 277 278 278 280 280 280 280 279 277 277 276 276 275 275 273 273 273
263 264 263 263 265 265 266 268 269 270 271 271 271 269 267 267 269 272 274 277 279 279 279 281 281 280 279 279 279 280 280 281 281 280 279 278 278 277 277 276 277 278 277 277 276 276 277 277 277 278 277 276 276 277 277 277 278 279 278 277 276 275 275 275 274 276 278 278 279 279 278 279 280 280 279 280 280 278 276 276 275 275 274 274 272 272 272 272
265 265 265 265 266 265 266 267 268 270 272 272 272 272 271 270 271 274 277 279 279 278 278 278 278 278 278 279 280 281 282 282 281 281 280 280 280 279 278 279 280 280 279 278 277 276 275 275 276 277 276 276 277 276 276 276 276 276 275 276 276 275 275 274 274 275 277 277 278 278 278 278 280 280 279 278 277 275 274 274 274 274 274 273 273 274 275 275
266 266 267 266 266 265 265 265 265 267 269 270 271 272 272 273 273 275 276 276 275 275 275 274 275 277 279 280 281 282 281 280 280 280 280 281 281 280 280 281 280 279 279 279 278 277 276 274 274 276 276 277 278 276 275 274 274 274 274 274 275 276 276 277 277 278 277 274 274 275 275 275 276 276 276 275 273 273 273 273 273 274 273 273 273 274 275 275
268 268 269 268 267 266 264 264 265 266 267 268 271 272 273 273 274 274 274 273 272 272 272 274 276 278 279 280 281 280 278 277 279 279 280 281 280 278 279 281 280 280 279 277 276 277 277 276 276 278 279 279 277 273 273 273 273 273 272 273 274 274 276 277 278 279 277 274 274 274 273 273 274 272 271 270 270 271 271 271 271 270 269 270 271 271 272 272
268 268 268 267 266 266 264 264 266 268 269 270 271 271 271 272 273 273 274 274 273 273 273 274 276 277 278 279 279 279 278 277 278 279 279 279 278 277 277 278 278 277 276 274 274 275 275 275 276 278 278 278 277 274 273 274 273 271 271 272 272 273 274 275 276 278 277 274 274 274 273 274 275 272 269 269 269 269 269 269 269 268 267 267 268 269 269 269
268 268 267 266 266 266 266 267 269 270 270 270 270 269 270 271 271 272 273 273 273 274 274 274 275 275 277 277 277 277 277 276 277 279 277 277 276 276 275 273 273 272 271 271 273 272 271 271 272 273 274 276 277 276 275 275 272 271 270 271 271 272 273 272 273 274 274 273 273 272 272 274 273 270 269 270 270 269 268 267 267 268 267 267 267 268 268 269
268 268 267 267 267 268 268 270 271 271 272 272 272 271 271 271 271 271 271 271 272 272 273 273 273 274 275 275 276 277 276 275 275 276 275 274 274 274 274 272 271 270 268 268 269 269 269 269 269 270 271 273 275 275 275 273 270 268 268 268 268 269 270 271 271 269 269 269 268 267 268 270 268 267 268 270 271 269 268 268 268 268 268 268 268 269 269 269
267 268 268 268 268 268 268 270 270 272 273 274 274 274 273 273 273 272 270 270 270 271 271 271 272 272 273 274 274 274 274 272 271 271 272 272 271 271 270 269 268 268 267 267 267 266 267 267 268 269 269 270 271 272 271 269 269 268 267 266 267 268 268 268 268 267 267 267 265 264 267 269 266 266 268 270 271 272 271 270 271 271 271 271 271 271 271 271
267 267 268 268 267 267 268 269 270 272 273 273 274 274 274 274 274 273 273 273 272 271 271 271 273 274 274 274 272 270 269 268 266 266 268 269 269 267 266 265 265 264 265 265 265 265 266 266 267 268 268 268 269 269 267 266 267 267 267 268 269 269 269 268 268 267 268 268 268 269 270 270 270 270 269 269 271 272 274 274 273 273 273 273 273 273 273 273
267 267 267 267 267 268 268 268 270 271 271 272 272 273 273 274 275 275 274 274 273 272 272 274 276 276 275 274 270 269 269 267 265 266 267 267 267 267 266 265 265 265 265 265 265 265 265 266 267 267 267 267 269 269 268 266 265 266 268 269 270 271 272 271 270 270 270 271 273 274 273 272 272 273 272 271 271 273 274 275 275 275 276 276 277 277 277 277
268 268 268 268 268 268 269 269 269 270 270 271 271 272 273 273 273 274 274 273 273 274 274 275 275 275 274 272 270 270 270 269 267 268 268 268 267 267 267 267 266 267 268 267 267 266 266 267 268 266 266 267 268 269 269 268 267 268 269 271 274 277 277 274 272 272 274 274 276 277 276 274 274 273 272 272 272 273 275 276 277 278 278 279 280 281 281 281
268 269 269 270 270 270 269 269 269 269 269 269 270 271 272 272 272 273 272 272 272 272 272 272 273 272 271 270 268 268 268 268 268 269 269 268 268 267 267 267 267 268 268 267 267 267 268 269 268 267 267 268 269 271 270 269 270 270 270 273 278 281 279 276 274 275 275 276 277 277 277 276 276 275 274 274 275 276 277 278 280 281 281 282 283 283 284 283
267 268 269 269 270 269 269 268 268 268 268 269 270 271 270 270 270 270 269 269 270 270 270 270 270 269 268 266 265 265 266 267 267 268 268 268 267 267 267 267 267 267 267 267 267 267 269 270 269 269 270 270 271 271 270 270 270 269 272 278 281 280 277 276 276 275 276 277 278 277 277 277 277 277 277 277 278 278 279 281 283 284 284 284 285 285 285 285
266 266 267 268 268 268 268 268 267 267 268 269 269 268 267 267 267 266 267 268 269 269 268 267 267 266 264 264 264 265 265 266 266 266 266 265 265 265 265 266 267 268 268 268 268 269 270 270 270 270 271 272 271 270 270 271 269 270 276 282 280 277 275 275 275 275 277 278 278 278 279 279 279 279 280 280 281 282 283 284 285 286 286 286 287 287 287 286
Height
5863 5864 5864 5864 5865 5865 5865 5865 5866 5866 5866 5866 5867 5867 5867 5867 5868 5868 5868 5868 5869 5869 5869 5869 5869 5869 5869 5869 5869 5869 5869 5868 5868 5868 5868 5868 5868 5868 5867 5867 5867 5867 5867 5867 5866 5866 5866 5866 5866 5866 5866 5866 5865 5865 5864 5864 5863 5862 5862 5862 5862 5860 5858 5857 5857 5857 5857 5857 5856 5856 5855 5856 5855 5853 5854 5854 5853 5852 5851 5849 5848 5848 5849 5848 5848 5847 5846 5846
5861 5861 5861 5862 5862 5862 5863 5863 5863 5864 5864 5864 5864 5865 5865 5865 5865 5866 5866 5866 5867 5867 5867 5867 5867 5867 5867 5867 5867 5867 5867 5866 5866 5867 5867 5866 5866 5866 5866 5865 5865 5865 5865 5865 5864 5864 5864 5864 5864 5864 5864 5863 5863 5862 5862 5861 5860 5859 5860 5860 5860 5858 5857 5856 5854 5854 5855 5855 5854 5854 5853 5853 5853 5852 5851 5852 5851 5851 5850 5848 5846 5847 5846 5846 5846 5846 5845 5844
5858 5858 5859 5859 5859 5860 5860 5860 5861 5861 5861 5862 5862 5862 5863 5863 5863 5864 5864 5864 5865 5865 5865 5865 5865 5865 5865 5865 5865 5866 5865 5864 5864 5865 5865 5864 5864 5864 5863 5863 5863 5863 5863 5862 5862 5862 5862 5862 5862 5861 5861 5861 5860 5860 5859 5859 5858 5857 5857 5858 5857 5855 5855 5854 5853 5852 5853 5852 5852 5852 5851 5851 5850 5849 5849 5849 5849 5849 5848 5845 5844 5845 5845 5844 5844 5844 5844 5844
5855 5855 5856 5856 5857 5857 5857 5858 5858 5859 5859 5859 5860 5860 5860 5861 5861 5861 5862 5862 5862 5862 5863 5863 5863 5863 5863 5863 5863 5863 5863 5862 5862 5862 5862 5862 5861 5861 5861 5861 5861 5861 5860 5860 5860 5859 5859 5859 5859 5858 5858 5858 5857 5858 5857 5856 5856 5855 5855 5856 5854 5853 5852 5852 5851 5850 5851 5850 5850 5849 5849 5849 5848 5847 5847 5847 5847 5848 5846 5843 5842 5843 5843 5842 5842 5842 5841 5842
5852 5853 5853 5853 5854 5854 5855 5855 5856 5856 5857 5857 5857 5858 5858 5858 5859 5859 5859 5859 5859 5860 5860 5860 5860 5860 5860 5860 5860 5860 5860 5859 5859 5859 5859 5859 5859 5858 5858 5858 5858 5858 5857 5857 5857 5856 5856 5856 5856 5855 5855 5855 5854 5854 5854 5853 5853 5853 5853 5852 5852 5850 5850 5850 5848 5848 5848 5847 5847 5846 5846 5847 5846 5846 5845 5845 5846 5845 5843 5841 5840 5841 5841 5840 5840 5840 5839 5839
5849 5850 5850 5851 5851 5852 5852 5852 5853 5853 5854 5854 5855 5855 5855 5856 5856 5856 5856 5856 5856 5856 5857 5857 5857 5857 5857 5857 5857 5857 5857 5855 5854 5856 5856 5856 5856 5855 5855 5855 5855 5855 5854 5854 5854 5853 5853 5853 5852 5852 5852 5853 5851 5851 5851 5850 5850 5851 5851 5849 5849 5848 5848 5848 5846 5846 5845 5844 5844 5843 5843 5844 5843 5844 5844 5843 5843 5842 5840 5840 5839 5839 5838 5838 5838 5838 5837 5837
5846 5847 5847 5848 5848 5849 5849 5849 5850 5851 5851 5852 5852 5852 5852 5853 5853 5853 5853 5853 5853 5853 5853 5854 5854 5854 5854 5854 5854 5854 5855 5852 5849 5852 5854 5853 5853 5852 5852 5852 5852 5852 5851 5851 5851 5850 5850 5850 5849 5849 5849 5850 5849 5848 5848 5847 5846 5848 5849 5847 5846 5846 5845 5845 5844 5843 5842 5841 5841 5840 5841 5841 5839 5841 5843 5842 5838 5837 5838 5838 5838 5837 5836 5835 5836 5835 5834 5834
5843 5843 5844 5844 5845 5845 5846 5846 5847 5847 5848 5848 5849 5849 5849 5849 5849 5849 5849 5849 5850 5850 5850 5850 5850 5850 5850 5851 5851 5852 5853 5849 5846 5847 5850 5850 5850 5850 5850 5850 5849 5849 5848 5848 5848 5847 5847 5847 5846 5846 5847 5846 5845 5845 5844 5844 5843 5844 5845 5844 5844 5843 5842 5841 5841 5840 5839 5838 5837 5837 5838 5838 5836 5837 5842 5840 5834 5834 5836 5836 5836 5835 5834 5833 5833 5832 5831 5831
5839 5840 5840 5841 5841 5842 5842 5843 5843 5844 5845 5845 5845 5845 5845 5845 5845 5845 5846 5846 5846 5846 5846 5846 5846 5846 5847 5847 5848 5849 5850 5846 5843 5844 5846 5846 5847 5847 5847 5847 5846 5846 5845 5845 5845 5844 5844 5843 5843 5843 5843 5843 5842 5842 5841 5840 5840 5840 5840 5840 5841 5841 5840 5839 5838 5837 5835 5834 5834 5833 5835 5836 5833 5833 5838 5838 5831 5832 5834 5833 5834 5833 5832 5830 5829 5829 5829 5828
5836 5836 5837 5837 5838 5838 5839 5839 5840 5841 5841 5841 5841 5842 5842 5841 5842 5842 5842 5842 5842 5842 5842 5842 5843 5843 5843 5844 5844 5847 5846 5843 5841 5841 5842 5842 5843 5843 5843 5843 5843 5843 5842 5842 5841 5840 5840 5839 5839 5839 5839 5839 5839 5838 5837 5836 5836 5836 5835 5835 5837 5836 5836 5836 5835 5834 5832 5830 5830 5829 5829 5833 5831 5829 5834 5834 5829 5829 5831 5831 5831 5831 5831 5829 5826 5825 5825 5825
5832 5833 5833 5834 5834 5835 5835 5836 5836 5837 5837 5837 5837 5838 5838 5838 5838 5838 5838 5838 5838 5838 5838 5838 5839 5839 5840 5841 5842 5844 5843 5840 5839 5838 5838 5839 5839 5839 5839 5839 5839 5839 5838 5838 5838 5837 5836 5836 5835 5835 5834 5835 5836 5835 5834 5833 5832 5832 5831 5830 5832 5832 5832 5833 5831 5830 5828 5826 5828 5825 5823 5827 5828 5826 5829 5830 5826 5826 5827 5828 5827 5827 5827 5827 5825 5823 5822 5821
5829 5829 5829 5830 5830 5831 5831 5832 5832 5833 5833 5833 5834 5834 5834 5834 5834 5834 5834 5834 5835 5834 5835 5835 5835 5836 5836 5838 5840 5840 5839 5838 5837 5835 5835 5835 5834 5835 5835 5835 5835 5835 5834 5834 5834 5834 5833 5831 5831 5831 5830 5830 5831 5830 5830 5830 5828 5828 5828 5825 5827 5828 5827 5829 5826 5825 5826 5822 5824 5822 5817 5821 5824 5824 5825 5825 5824 5824 5823 5824 5824 5824 5823 5823 5823 5821 5820 5818
5825 5825 5826 5826 5827 5827 5828 5828 5829 5829 5830 5830 5830 5830 5830 5830 5830 5830 5831 5831 5831 5831 5831 5831 5832 5832 5832 5835 5837 5836 5835 5835 5833 5833 5832 5831 5831 5831 5831 5831 5831 5830 5830 5829 5830 5830 5828 5827 5827 5827 5827 5826 5826 5825 5825 5826 5823 5824 5825 5820 5821 5823 5822 5825 5823 5822 5823 5819 5820 5818 5811 5813 5818 5821 5821 5820 5820 5820 5819 5820 5821 5821 5820 5819 5819 5818 5817 5814
5821 5821 5822 5822 5822 5823 5823 5824 5825 5825 5826 5826 5826 5827 5827 5827 5826 5827 5827 5827 5827 5827 5827 5827 5828 5828 5828 5831 5833 5833 5832 5830 5830 5830 5829 5828 5828 5827 5827 5827 5826 5826 5826 5825 5825 5825 5824 5824 5823 5823 5823 5822 5822 5821 5821 5821 5819 5820 5821 5816 5815 5815 5815 5820 5819 5819 5821 5816 5815 5813 5807 5807 5811 5815 5817 5816 5816 5816 5813 5814 5817 5818 5817 5816 5815 5813 5812 5810
5816 5817 5817 5818 5818 5818 5819 5819 5820 5821 5821 5822 5822 5822 5822 5822 5822 5822 5822 5823 5823 5823 5823 5823 5823 5823 5823 5827 5829 5828 5828 5827 5827 5826 5825 5824 5824 5823 5823 5822 5822 5822 5821 5821 5821 5820 5820 5820 5818 5818 5818 5817 5817 5817 5816 5816 5814 5815 5816 5812 5810 5808 5809 5812 5813 5815 5817 5814 5811 5808 5804 5803 5806 5810 5812 5813 5813 5811 5809 5809 5811 5813 5812 5812 5811 5809 5807 5806
5812 5812 5813 5813 5813 5814 5814 5814 5815 5815 5816 5817 5817 5817 5817 5817 5818 5818 5818 5818 5818 5818 5818 5819 5819 5818 5818 5822 5824 5823 5823 5824 5823 5822 5821 5820 5819 5819 5819 5818 5817 5818 5817 5816 5816 5815 5815 5815 5814 5814 5813 5812 5813 5813 5812 5810 5809 5811 5810 5806 5806 5805 5804 5805 5806 5808 5811 5811 5807 5803 5800 5801 5803 5804 5805 5809 5809 5805 5804 5806 5806 5807 5807 5806 5805 5803 5801 5801
5807 5808 5808 5808 5808 5809 5809 5810 5810 5810 5811 5811 5812 5812 5812 5813 5813 5813 5813 5813 5814 5814 5814 5814 5814 5814 5814 5815 5817 5818 5819 5819 5818 5817 5817 5816 5815 5815 5815 5814 5813 5813 5812 5812 5811 5811 5811 5810 5809 5809 5808 5808 5810 5810 5806 5804 5805 5806 5804 5802 5801 5801 5800 5800 5801 5802 5804 5804 5802 5798 5797 5798 5801 5800 5799 5803 5805 5801 5801 5802 5803 5802 5801 5801 5799 5797 5797 5797
5802 5803 5803 5803 5803 5804 5804 5805 5805 5805 5805 5806 5806 5806 5807 5807 5807 5808 5808 5809 5809 5810 5810 5809 5810 5810 5810 5810 5811 5812 5814 5814 5813 5812 5812 5812 5811 5810 5810 5810 5809 5808 5808 5807 5807 5807 5807 5806 5805 5804 5804 5805 5807 5806 5801 5800 5800 5800 5799 5798 5797 5796 5796 5796 5796 5797 5797 5796 5795 5794 5794 5794 5794 5794 5794 5796 5798 5797 5797 5797 5798 5798 5796 5794 5793 5793 5793 5793
5797 5797 5797 5797 5798 5799 5800 5800 5800 5800 5800 5800 5801 5801 5801 5801 5802 5803 5803 5804 5805 5805 5805 5804 5806 5806 5805 5805 5805 5806 5808 5808 5808 5808 5808 5807 5807 5806 5805 5805 5805 5804 5803 5803 5803 5802 5802 5802 5799 5800 5801 5802 5803 5801 5798 5797 5796 5795 5795 5794 5792 5791 5791 5791 5792 5793 5791 5789 5789 5790 5790 5790 5788 5789 5790 5790 5790 5792 5793 5792 5792 5792 5791 5789 5789 5789 5789 5789
5792 5792 5792 5792 5793 5794 5794 5795 5795 5795 5795 5794 5795 5795 5795 5795 5797 5797 5797 5799 5800 5801 5800 5800 5800 5801 5802 5801 5799 5800 5802 5801 5802 5803 5803 5803 5802 5801 5800 5800 5800 5800 5799 5799 5798 5797 5798 5798 5795 5795 5797 5797 5797 5796 5795 5793 5792 5791 5791 5790 5788 5787 5786 5787 5788 5787 5786 5784 5784 5785 5785 5784 5783 5785 5786 5786 5786 5786 5788 5788 5787 5786 5786 5786 5785 5785 5785 5785
5786 5787 5787 5787 5788 5788 5789 5789 5789 5789 5789 5789 5789 5789 5790 5790 5791 5791 5792 5794 5795 5796 5796 5796 5795 5795 5797 5796 5794 5795 5795 5795 5796 5797 5798 5798 5797 5796 5796 5795 5795 5795 5795 5794 5792 5792 5794 5794 5792 5791 5792 5792 5792 5791 5790 5788 5787 5787 5787 5785 5784 5783 5782 5783 5782 5781 5781 5780 5780 5781 5779 5777 5778 5779 5779 5781 5781 5781 5782 5781 5778 5778 5781 5781 5781 5781 5781 5781
5781 5781 5782 5782 5782 5783 5783 5783 5783 5783 5783 5783 5783 5783 5784 5784 5785 5785 5785 5787 5791 5792 5791 5792 5791 5789 5790 5788 5789 5791 5789 5788 5789 5791 5792 5791 5792 5792 5791 5790 5790 5791 5790 5788 5788 5788 5788 5788 5788 5787 5786 5787 5787 5787 5785 5783 5783 5783 5782 5780 5779 5778 5778 5778 5778 5776 5775 5775 5775 5776 5775 5773 5775 5775 5773 5775 5777 5775 5776 5775 5771 5770 5772 5773 5773 5774 5775 5775
5775 5776 5776 5776 5776 5776 5776 5776 5777 5777 5777 5778 5778 5778 5778 5779 5779 5779 5779 5779 5783 5787 5786 5786 5785 5784 5783 5781 5782 5784 5783 5783 5783 5784 5786 5786 5786 5786 5785 5785 5785 5786 5785 5783 5784 5784 5783 5782 5782 5782 5782 5782 5782 5781 5780 5779 5779 5778 5778 5776 5775 5775 5774 5773 5773 5772 5771 5770 5769 5769 5769 5769 5771 5771 5769 5771 5772 5771 5769 5768 5768 5767 5766 5766 5766 5766 5767 5768
5770 5770 5770 5770 5770 5770 5770 5770 5770 5770 5771 5771 5772 5773 5773 5773 5773 5773 5773 5772 5774 5779 5781 5780 5779 5777 5776 5775 5776 5776 5776 5777 5777 5778 5780 5780 5779 5779 5779 5779 5779 5780 5780 5778 5778 5779 5778 5778 5777 5776 5776 5776 5777 5776 5775 5774 5774 5774 5774 5772 5772 5772 5771 5769 5768 5767 5767 5767 5765 5764 5763 5764 5766 5766 5766 5767 5767 5765 5762 5761 5763 5764 5762 5762 5761 5760 5761 5761
5763 5763 5763 5764 5764 5764 5764 5764 5764 5764 5765 5766 5766 5767 5768 5767 5767 5767 5767 5766 5766 5769 5772 5773 5773 5771 5770 5770 5770 5770 5770 5771 5772 5773 5774 5773 5773 5773 5773 5773 5772 5773 5774 5773 5772 5773 5773 5774 5773 5771 5770 5769 5770 5771 5770 5769 5769 5770 5770 5769 5768 5767 5766 5765 5764 5762 5762 5762 5761 5760 5758 5758 5762 5764 5763 5764 5762 5758 5756 5756 5757 5758 5757 5756 5757 5756 5756 5756
5757 5757 5758 5758 5758 5758 5758 5757 5758 5758 5759 5760 5760 5761 5761 5761 5761 5761 5761 5759 5759 5762 5763 5763 5764 5765 5765 5764 5764 5765 5765 5765 5766 5766 5767 5767 5767 5767 5767 5767 5767 5767 5768 5767 5767 5768 5768 5769 5768 5767 5767 5765 5764 5764 5764 5764 5765 5765 5765 5765 5764 5763 5761 5760 5760 5758 5757 5757 5757 5756 5753 5752 5755 5759 5759 5759 5757 5752 5751 5752 5751 5751 5751 5750 5751 5751 5751 5752
5751 5751 5752 5753 5752 5751 5751 5752 5752 5753 5753 5754 5754 5754 5754 5754 5754 5755 5755 5752 5753 5755 5754 5753 5755 5757 5758 5759 5759 5760 5759 5759 5760 5760 5761 5761 5761 5761 5761 5761 5762 5761 5761 5762 5762 5763 5763 5763 5763 5763 5763 5762 5761 5760 5759 5759 5759 5759 5760 5760 5759 5758 5757 5756 5754 5753 5752 5752 5752 5752 5750 5747 5749 5752 5752 5752 5750 5747 5748 5747 5746 5746 5745 5744 5745 5745 5745 5745
5745 5746 5746 5746 5746 5745 5745 5747 5747 5747 5747 5747 5747 5747 5747 5748 5749 5749 5749 5747 5747 5748 5747 5746 5747 5749 5751 5752 5753 5754 5753 5754 5755 5754 5755 5754 5754 5755 5755 5755 5756 5755 5756 5756 5756 5757 5757 5758 5758 5757 5757 5757 5757 5757 5756 5755 5754 5755 5754 5753 5753 5752 5752 5750 5749 5748 5747 5747 5748 5747 5745 5744 5745 5745 5745 5743 5740 5740 5742 5740 5740 5741 5740 5740 5740 5740 5739 5738
5740 5740 5740 5740 5740 5740 5740 5741 5742 5741 5741 5741 5740 5740 5741 5741 5742 5744 5743 5741 5741 5741 5740 5741 5742 5743 5744 5744 5745 5747 5747 5749 5749 5748 5749 5748 5748 5748 5748 5749 5749 5749 5750 5750 5750 5751 5751 5752 5752 5751 5752 5752 5752 5752 5751 5750 5750 5749 5749 5748 5747 5746 5745 5744 5743 5743 5742 5741 5744 5743 5740 5740 5741 5741 5741 5738 5734 5734 5735 5733 5734 5736 5735 5734 5734 5734 5734 5732
5734 5734 5734 5734 5735 5735 5735 5736 5735 5735 5735 5735 5734 5735 5735 5735 5736 5738 5736 5735 5736 5735 5735 5736 5737 5737 5738 5738 5739 5740 5741 5742 5742 5742 5742 5742 5742 5742 5742 5742 5743 5743 5743 5744 5745 5745 5745 5745 5745 5745 5746 5746 5746 5746 5745 5745 5744 5744 5744 5742 5741 5740 5739 5738 5737 5737 5735 5736 5739 5738 5735 5736 5737 5736 5735 5732 5730 5731 5731 5729 5730 5731 5730 5729 5727 5726 5726 5725
5728 5728 5728 5729 5730 5730 5731 5730 5730 5729 5729 5729 5729 5729 5730 5729 5731 5731 5730 5730 5730 5729 5729 5731 5731 5731 5732 5733 5733 5734 5735 5734 5734 5735 5735 5736 5736 5736 5736 5736 5736 5736 5736 5737 5738 5738 5739 5739 5739 5740 5740 5740 5740 5740 5739 5738 5738 5738 5737 5736 5735 5735 5734 5731 5731 5731 5729 5731 5734 5733 5731 5731 5732 5732 5729 5728 5726 5727 5728 5727 5726 5725 5724 5725 5722 5720 5719 5717
5722 5723 5724 5724 5724 5725 5726 5725 5725 5724 5723 5723 5724 5724 5725 5724 5725 5726 5726 5726 5725 5724 5725 5726 5726 5726 5726 5727 5726 5727 5728 5727 5728 5729 5729 5730 5730 5731 5731 5730 5730 5730 5730 5730 5731 5731 5732 5733 5733 5734 5734 5734 5734 5733 5733 5733 5732 5731 5731 5730 5728 5728 5727 5724 5725 5725 5724 5726 5727 5727 5725 5724 5726 5726 5724 5723 5722 5722 5724 5725 5722 5719 5718 5719 5718 5715 5713 5711
5716 5718 5718 5719 5719 5719 5720 5720 5719 5719 5718 5718 5718 5719 5720 5719 5721 5724 5723 5722 5720 5719 5720 5721 5721 5721 5722 5721 5720 5721 5722 5721 5722 5723 5723 5724 5724 5725 5725 5725 5725 5724 5723 5724 5724 5724 5725 5727 5727 5727 5728 5729 5728 5727 5727 5727 5726 5725 5725 5724 5723 5722 5720 5718 5719 5719 5718 5720 5719 5719 5720 5719 5719 5719 5718 5718 5718 5717 5718 5718 5717 5715 5713 5712 5711 5709 5706 5705
5711 5712 5712 5712 5712 5712 5713 5713 5713 5713 5712 5712 5713 5713 5713 5714 5717 5719 5719 5718 5716 5714 5716 5716 5717 5718 5717 5717 5716 5716 5716 5716 5716 5717 5717 5717 5718 5718 5719 5719 5719 5717 5717 5718 5718 5717 5717 5720 5721 5720 5721 5722 5722 5722 5721 5720 5720 5719 5720 5718 5716 5717 5714 5711 5712 5712 5712 5712 5712 5714 5715 5715 5713 5712 5712 5712 5712 5712 5711 5710 5710 5708 5707 5705 5704 5702 5700 5698
5705 5705 5705 5706 5705 5706 5707 5707 5707 5707 5706 5706 5706 5706 5708 5712 5714 5712 5712 5712 5710 5708 5710 5710 5712 5712 5712 5713 5712 5711 5711 5711 5712 5712 5712 5712 5712 5712 5714 5714 5713 5712 5712 5712 5712 5711 5710 5712 5715 5714 5713 5715 5715 5714 5713 5714 5712 5712 5714 5712 5710 5711 5708 5704 5704 5705 5704 5701 5704 5709 5710 5710 5708 5704 5706 5706 5704 5705 5703 5702 5701 5699 5697 5697 5695 5695 5693 5691
5698 5698 5699 5699 5699 5699 5700 5700 5700 5699 5699 5699 5697 5699 5705 5709 5708 5705 5706 5706 5703 5702 5704 5703 5705 5706 5706 5707 5708 5706 5705 5705 5707 5707 5707 5707 5706 5707 5709 5708 5708 5708 5707 5706 5705 5705 5705 5706 5709 5708 5706 5707 5709 5706 5705 5706 5704 5704 5706 5707 5705 5704 5701 5697 5695 5697 5697 5691 5695 5703 5703 5704 5702 5695 5698 5700 5697 5698 5697 5694 5693 5690 5689 5689 5687 5686 5684 5682
5690 5690 5692 5693 5692 5692 5693 5694 5692 5691 5691 5690 5689 5694 5701 5703 5701 5699 5699 5700 5698 5696 5696 5695 5697 5698 5698 5700 5702 5700 5697 5698 5701 5701 5701 5702 5700 5702 5704 5702 5702 5702 5700 5699 5698 5697 5698 5700 5703 5704 5700 5699 5701 5700 5697 5698 5697 5696 5697 5699 5699 5696 5694 5692 5687 5687 5688 5683 5686 5694 5695 5697 5696 5689 5689 5691 5689 5690 5689 5686 5685 5683 5682 5681 5679 5678 5676 5673
5681 5682 5684 5686 5685 5685 5686 5685 5683 5683 5682 5681 5683 5689 5694 5695 5695 5693 5691 5692 5691 5689 5688 5688 5690 5691 5691 5692 5694 5693 5689 5691 5694 5693 5694 5695 5693 5696 5697 5694 5695 5696 5694 5693 5691 5689 5690 5692 5695 5698 5695 5692 5694 5694 5691 5690 5690 5689 5688 5690 5690 5687 5686 5686 5681 5678 5679 5675 5676 5682 5684 5687 5690 5685 5682 5681 5680 5680 5679 5678 5677 5675 5674 5673 5671 5669 5667 5666
5673 5674 5676 5679 5679 5678 5678 5676 5674 5674 5674 5675 5679 5683 5686 5687 5687 5685 5683 5684 5684 5682 5681 5682 5682 5683 5683 5685 5686 5685 5683 5684 5686 5684 5684 5687 5686 5687 5689 5686 5687 5689 5688 5687 5685 5682 5682 5683 5686 5691 5689 5685 5686 5687 5685 5684 5684 5682 5680 5681 5682 5680 5679 5679 5676 5674 5672 5668 5667 5669 5671 5676 5681 5679 5675 5673 5671 5670 5669 5669 5668 5666 5665 5664 5662 5661 5659 5658
5665 5664 5668 5673 5671 5669 5670 5667 5666 5667 5666 5669 5674 5676 5678 5679 5679 5678 5676 5676 5677 5676 5675 5676 5675 5674 5676 5678 5679 5679 5677 5675 5678 5677 5675 5677 5678 5677 5678 5679 5680 5680 5679 5679 5677 5676 5676 5674 5676 5683 5683 5679 5678 5679 5679 5679 5677 5674 5672 5673 5673 5672 5671 5670 5669 5671 5668 5661 5659 5658 5658 5665 5671 5670 5668 5667 5663 5661 5660 5659 5659 5657 5656 5654 5653 5652 5651 5649
5656 5656 5661 5665 5662 5661 5662 5658 5658 5661 5660 5663 5668 5669 5669 5670 5671 5672 5671 5669 5669 5669 5668 5668 5668 5668 5669 5670 5672 5673 5670 5667 5669 5670 5668 5670 5671 5668 5669 5671 5671 5671 5671 5670 5668 5667 5667 5665 5666 5673 5676 5674 5672 5670 5670 5672 5671 5667 5664 5666 5666 5664 5663 5661 5659 5664 5663 5655 5653 5651 5647 5653 5662 5661 5658 5658 5656 5654 5652 5650 5650 5650 5648 5647 5646 5643 5641 5639
5648 5649 5654 5657 5653 5654 5654 5649 5652 5654 5653 5659 5664 5662 5662 5662 5663 5664 5663 5662 5662 5661 5660 5660 5661 5662 5661 5663 5664 5664 5662 5659 5660 5662 5661 5663 5664 5661 5661 5663 5663 5663 5663 5663 5661 5659 5659 5656 5655 5660 5665 5668 5667 5661 5659 5663 5664 5660 5656 5657 5659 5657 5656 5653 5649 5652 5653 5648 5646 5644 5637 5641 5652 5653 5650 5649 5649 5647 5644 5643 5643 5642 5641 5640 5637 5634 5632 5630
5641 5641 5645 5647 5646 5646 5645 5642 5646 5647 5647 5654 5657 5654 5655 5655 5655 5657 5656 5654 5653 5654 5653 5653 5654 5654 5654 5656 5655 5654 5654 5651 5651 5655 5654 5655 5656 5654 5655 5656 5656 5656 5654 5654 5654 5653 5652 5649 5648 5649 5653 5657 5659 5654 5651 5653 5654 5652 5649 5650 5652 5651 5650 5647 5642 5641 5641 5639 5640 5636 5627 5632 5643 5644 5642 5641 5641 5639 5637 5635 5635 5634 5633 5632 5628 5626 5624 5622
5632 5632 5636 5638 5638 5637 5636 5637 5640 5640 5641 5646 5646 5646 5648 5646 5647 5650 5648 5646 5646 5646 5645 5645 5646 5646 5647 5648 5646 5646 5647 5643 5643 5647 5647 5646 5647 5647 5648 5648 5648 5649 5647 5645 5646 5647 5645 5643 5642 5641 5642 5646 5650 5649 5645 5645 5645 5643 5642 5643 5645 5645 5644 5640 5637 5635 5630 5628 5632 5628 5621 5627 5634 5634 5634 5634 5631 5629 5627 5626 5627 5626 5625 5623 5620 5618 5617 5614
5624 5623 5626 5630 5630 5628 5629 5632 5632 5630 5633 5636 5635 5637 5640 5638 5640 5642 5639 5638 5638 5638 5636 5637 5638 5639 5639 5640 5638 5638 5639 5636 5635 5637 5638 5639 5639 5639 5641 5640 5639 5641 5640 5638 5639 5638 5637 5636 5636 5634 5633 5635 5640 5642 5640 5637 5635 5634 5635 5636 5637 5639 5637 5633 5630 5628 5623 5622 5623 5620 5616 5620 5625 5626 5627 5625 5620 5617 5616 5617 5618 5617 5615 5614 5612 5610 5609 5607
5615 5615 5617 5620 5620 5619 5622 5625 5623 5622 5625 5625 5624 5628 5630 5629 5631 5632 5629 5629 5630 5629 5628 5628 5630 5631 5631 5631 5631 5630 5631 5630 5628 5627 5630 5631 5631 5632 5633 5633 5633 5632 5632 5632 5631 5630 5628 5628 5629 5627 5625 5626 5630 5633 5634 5629 5624 5624 5626 5628 5631 5632 5631 5628 5622 5619 5617 5614 5611 5612 5613 5611 5614 5620 5620 5616 5610 5604 5604 5607 5608 5606 5605 5603 5603 5601 5600 5598
5606 5608 5609 5610 5610 5611 5616 5618 5615 5615 5617 5615 5614 5619 5620 5620 5621 5620 5619 5620 5621 5621 5620 5619 5621 5622 5622 5623 5622 5621 5622 5622 5620 5620 5622 5623 5623 5624 5624 5626 5626 5625 5625 5625 5623 5623 5621 5619 5623 5622 5617 5619 5621 5622 5625 5622 5615 5614 5616 5619 5624 5625 5623 5620 5614 5610 5609 5602 5598 5605 5610 5602 5603 5611 5611 5608 5603 5595 5593 5596 5597 5596 5594 5592 5592 5592 5590 5588
5597 5599 5599 5599 5600 5603 5607 5609 5608 5606 5606 5606 5606 5609 5611 5611 5611 5610 5609 5611 5612 5612 5610 5610 5613 5614 5614 5614 5612 5611 5613 5614 5612 5614 5615 5615 5615 5615 5616 5618 5618 5617 5618 5616 5615 5616 5613 5612 5617 5615 5608 5611 5614 5612 5613 5611 5608 5607 5608 5610 5615 5617 5616 5612 5604 5601 5600 5593 5589 5596 5599 5593 5595 5600 5599 5596 5594 5589 5586 5586 5586 5586 5583 5581 5581 5581 5579 5577
5588 5589 5588 5588 5591 5594 5596 5599 5598 5595 5597 5597 5596 5601 5604 5602 5601 5601 5600 5601 5603 5604 5603 5603 5606 5606 5605 5606 5604 5602 5605 5605 5605 5607 5608 5608 5608 5607 5608 5609 5609 5610 5610 5608 5608 5608 5605 5606 5610 5605 5600 5604 5607 5605 5602 5599 5598 5600 5602 5603 5605 5607 5607 5602 5597 5595 5592 5586 5584 5586 5584 5583 5587 5589 5587 5585 5584 5583 5579 5576 5576 5575 5573 5572 5571 5569 5567 5565
5578 5579 5579 5578 5581 5585 5586 5589 5588 5585 5588 5588 5588 5594 5595 5592 5594 5594 5590 5591 5595 5597 5595 5595 5598 5599 5597 5597 5596 5595 5596 5598 5598 5599 5601 5601 5600 5599 5600 5600 5601 5603 5603 5601 5600 5599 5598 5599 5600 5595 5591 5595 5601 5598 5591 5587 5589 5591 5593 5597 5600 5598 5596 5592 5590 5589 5584 5578 5578 5577 5571 5572 5577 5577 5575 5575 5575 5574 5571 5568 5566 5564 5562 5562 5561 5558 5555 5553
5568 5570 5571 5570 5572 5575 5576 5578 5578 5576 5579 5581 5582 5587 5586 5583 5588 5586 5580 5583 5587 5588 5588 5589 5590 5591 5589 5588 5588 5588 5589 5590 5591 5592 5592 5593 5593 5592 5592 5592 5592 5594 5595 5594 5592 5591 5591 5589 5590 5587 5580 5585 5596 5590 5578 5578 5581 5580 5585 5593 5595 5590 5586 5583 5581 5580 5576 5572 5570 5567 5562 5562 5564 5564 5564 5565 5564 5565 5563 5559 5557 5552 5549 5548 5549 5547 5544 5539
5560 5562 5563 5561 5563 5567 5567 5569 5569 5568 5572 5576 5576 5577 5576 5575 5579 5577 5573 5576 5579 5579 5580 5581 5582 5582 5580 5580 5581 5581 5582 5583 5584 5584 5584 5585 5585 5584 5584 5584 5585 5586 5587 5585 5583 5584 5584 5580 5580 5579 5571 5575 5587 5581 5570 5570 5570 5572 5582 5588 5586 5582 5577 5573 5572 5572 5571 5567 5561 5556 5553 5552 5551 5552 5553 5554 5553 5554 5553 5550 5546 5541 5535 5533 5534 5535 5531 5526